Year,Month,Day,Hour,Minute,Value (Times are PST for temperature in C)
2014,09,03,00,00,9.50
2014,09,03,00,01,9.50
2014,09,03,00,02,9.50
2014,09,03,00,03,9.40
2014,09,03,00,04,9.40
2014,09,03,00,05,9.40
2014,09,03,00,06,9.40
2014,09,03,00,07,9.30
2014,09,03,00,08,9.30
2014,09,03,00,09,9.30
2014,09,03,00,10,9.30
2014,09,03,00,11,9.30
2014,09,03,00,12,9.20
2014,09,03,00,13,9.20
2014,09,03,00,14,9.20
2014,09,03,00,15,9.20
2014,09,03,00,16,9.20
2014,09,03,00,17,9.10
2014,09,03,00,18,9.10
2014,09,03,00,19,9.10
2014,09,03,00,20,9.10
2014,09,03,00,21,9.10
2014,09,03,00,22,9.10
2014,09,03,00,23,9.10
2014,09,03,00,24,9.00
2014,09,03,00,25,9.00
2014,09,03,00,26,8.90
2014,09,03,00,27,8.90
2014,09,03,00,28,8.90
2014,09,03,00,29,8.90
2014,09,03,00,30,8.90
2014,09,03,00,31,8.80
2014,09,03,00,32,8.80
2014,09,03,00,33,8.80
2014,09,03,00,34,8.80
2014,09,03,00,35,8.80
2014,09,03,00,36,8.80
2014,09,03,00,37,8.80
2014,09,03,00,38,8.80
2014,09,03,00,39,8.80
2014,09,03,00,40,8.80
2014,09,03,00,41,8.70
2014,09,03,00,42,8.70
2014,09,03,00,43,8.70
2014,09,03,00,44,8.70
2014,09,03,00,45,8.70
2014,09,03,00,46,8.60
2014,09,03,00,47,8.60
2014,09,03,00,48,8.60
2014,09,03,00,49,8.60
2014,09,03,00,50,8.60
2014,09,03,00,51,8.60
2014,09,03,00,52,8.60
2014,09,03,00,53,8.50
2014,09,03,00,54,8.50
2014,09,03,00,55,8.50
2014,09,03,00,56,8.40
2014,09,03,00,57,8.40
2014,09,03,00,58,8.40
2014,09,03,00,59,8.40
2014,09,03,01,00,8.40
2014,09,03,01,01,8.40
2014,09,03,01,02,8.30
2014,09,03,01,03,8.30
2014,09,03,01,04,8.30
2014,09,03,01,05,8.30
2014,09,03,01,06,8.30
2014,09,03,01,07,8.30
2014,09,03,01,08,8.30
2014,09,03,01,09,8.30
2014,09,03,01,10,8.30
2014,09,03,01,11,8.30
2014,09,03,01,12,8.30
2014,09,03,01,13,8.30
2014,09,03,01,14,8.30
2014,09,03,01,15,8.20
2014,09,03,01,16,8.20
2014,09,03,01,17,8.20
2014,09,03,01,18,8.20
2014,09,03,01,19,8.20
2014,09,03,01,20,8.20
2014,09,03,01,21,8.20
2014,09,03,01,22,8.20
2014,09,03,01,23,8.10
2014,09,03,01,24,8.10
2014,09,03,01,25,8.10
2014,09,03,01,26,8.10
2014,09,03,01,27,8.10
2014,09,03,01,28,8.10
2014,09,03,01,29,8.10
2014,09,03,01,30,8.10
2014,09,03,01,31,8.10
2014,09,03,01,32,8.00
2014,09,03,01,33,8.00
2014,09,03,01,34,8.00
2014,09,03,01,35,7.90
2014,09,03,01,36,7.90
2014,09,03,01,37,7.90
2014,09,03,01,38,7.90
2014,09,03,01,39,7.90
2014,09,03,01,40,7.90
2014,09,03,01,41,7.90
2014,09,03,01,42,7.90
2014,09,03,01,43,7.90
2014,09,03,01,44,7.90
2014,09,03,01,45,7.90
2014,09,03,01,46,7.90
2014,09,03,01,47,7.90
2014,09,03,01,48,7.90
2014,09,03,01,49,7.80
2014,09,03,01,50,7.80
2014,09,03,01,51,7.80
2014,09,03,01,52,7.80
2014,09,03,01,53,7.80
2014,09,03,01,54,7.80
2014,09,03,01,55,7.80
2014,09,03,01,56,7.80
2014,09,03,01,57,7.80
2014,09,03,01,58,7.80
2014,09,03,01,59,7.70
2014,09,03,02,00,7.70
2014,09,03,02,01,7.70
2014,09,03,02,02,7.70
2014,09,03,02,03,7.70
2014,09,03,02,04,7.70
2014,09,03,02,05,7.70
2014,09,03,02,06,7.70
2014,09,03,02,07,7.70
2014,09,03,02,08,7.60
2014,09,03,02,09,7.60
2014,09,03,02,10,7.60
2014,09,03,02,11,7.60
2014,09,03,02,12,7.60
2014,09,03,02,13,7.60
2014,09,03,02,14,7.50
2014,09,03,02,15,7.50
2014,09,03,02,16,7.50
2014,09,03,02,17,7.50
2014,09,03,02,18,7.50
2014,09,03,02,19,7.40
2014,09,03,02,20,7.40
2014,09,03,02,21,7.40
2014,09,03,02,22,7.40
2014,09,03,02,23,7.40
2014,09,03,02,24,7.40
2014,09,03,02,25,7.40
2014,09,03,02,26,7.40
2014,09,03,02,27,7.40
2014,09,03,02,28,7.40
2014,09,03,02,29,7.40
2014,09,03,02,30,7.40
2014,09,03,02,31,7.40
2014,09,03,02,32,7.40
2014,09,03,02,33,7.40
2014,09,03,02,34,7.30
2014,09,03,02,35,7.30
2014,09,03,02,36,7.30
2014,09,03,02,37,7.30
2014,09,03,02,38,7.30
2014,09,03,02,39,7.30
2014,09,03,02,40,7.30
2014,09,03,02,41,7.30
2014,09,03,02,42,7.30
2014,09,03,02,43,7.30
2014,09,03,02,44,7.30
2014,09,03,02,45,7.30
2014,09,03,02,46,7.30
2014,09,03,02,47,7.30
2014,09,03,02,48,7.20
2014,09,03,02,49,7.20
2014,09,03,02,50,7.20
2014,09,03,02,51,7.20
2014,09,03,02,52,7.20
2014,09,03,02,53,7.20
2014,09,03,02,54,7.20
2014,09,03,02,55,7.20
2014,09,03,02,56,7.20
2014,09,03,02,57,7.20
2014,09,03,02,58,7.20
2014,09,03,02,59,7.20
2014,09,03,03,00,7.10
2014,09,03,03,01,7.10
2014,09,03,03,02,7.10
2014,09,03,03,03,7.10
2014,09,03,03,04,7.10
2014,09,03,03,05,7.10
2014,09,03,03,06,7.00
2014,09,03,03,07,7.00
2014,09,03,03,08,7.00
2014,09,03,03,09,7.00
2014,09,03,03,10,7.00
2014,09,03,03,11,6.90
2014,09,03,03,12,6.90
2014,09,03,03,13,6.90
2014,09,03,03,14,6.90
2014,09,03,03,15,6.90
2014,09,03,03,16,6.90
2014,09,03,03,17,6.80
2014,09,03,03,18,6.80
2014,09,03,03,19,6.80
2014,09,03,03,20,6.80
2014,09,03,03,21,6.80
2014,09,03,03,22,6.80
2014,09,03,03,23,6.80
2014,09,03,03,24,6.80
2014,09,03,03,25,6.80
2014,09,03,03,26,6.80
2014,09,03,03,27,6.80
2014,09,03,03,28,6.80
2014,09,03,03,29,6.80
2014,09,03,03,30,6.80
2014,09,03,03,31,6.80
2014,09,03,03,32,6.70
2014,09,03,03,33,6.70
2014,09,03,03,34,6.70
2014,09,03,03,35,6.70
2014,09,03,03,36,6.70
2014,09,03,03,37,6.70
2014,09,03,03,38,6.70
2014,09,03,03,39,6.70
2014,09,03,03,40,6.70
2014,09,03,03,41,6.70
2014,09,03,03,42,6.70
2014,09,03,03,43,6.70
2014,09,03,03,44,6.70
2014,09,03,03,45,6.70
2014,09,03,03,46,6.60
2014,09,03,03,47,6.60
2014,09,03,03,48,6.60
2014,09,03,03,49,6.60
2014,09,03,03,50,6.60
2014,09,03,03,51,6.60
2014,09,03,03,52,6.60
2014,09,03,03,53,6.60
2014,09,03,03,54,6.60
2014,09,03,03,55,6.60
2014,09,03,03,56,6.60
2014,09,03,03,57,6.60
2014,09,03,03,58,6.50
2014,09,03,03,59,6.60
2014,09,03,04,00,6.50
2014,09,03,04,01,6.50
2014,09,03,04,02,6.50
2014,09,03,04,03,6.50
2014,09,03,04,04,6.50
2014,09,03,04,05,6.50
2014,09,03,04,06,6.50
2014,09,03,04,07,6.40
2014,09,03,04,08,6.40
2014,09,03,04,09,6.40
2014,09,03,04,10,6.40
2014,09,03,04,11,6.40
2014,09,03,04,12,6.40
2014,09,03,04,13,6.40
2014,09,03,04,14,6.40
2014,09,03,04,15,6.30
2014,09,03,04,16,6.30
2014,09,03,04,17,6.30
2014,09,03,04,18,6.30
2014,09,03,04,19,6.30
2014,09,03,04,20,6.30
2014,09,03,04,21,6.30
2014,09,03,04,22,6.30
2014,09,03,04,23,6.30
2014,09,03,04,24,6.30
2014,09,03,04,25,6.30
2014,09,03,04,26,6.30
2014,09,03,04,27,6.30
2014,09,03,04,28,6.30
2014,09,03,04,29,6.30
2014,09,03,04,30,6.30
2014,09,03,04,31,6.20
2014,09,03,04,32,6.20
2014,09,03,04,33,6.20
2014,09,03,04,34,6.20
2014,09,03,04,35,6.20
2014,09,03,04,36,6.20
2014,09,03,04,37,6.20
2014,09,03,04,38,6.20
2014,09,03,04,39,6.20
2014,09,03,04,40,6.10
2014,09,03,04,41,6.10
2014,09,03,04,42,6.10
2014,09,03,04,43,6.10
2014,09,03,04,44,6.10
2014,09,03,04,45,6.10
2014,09,03,04,46,6.10
2014,09,03,04,47,6.10
2014,09,03,04,48,6.10
2014,09,03,04,49,6.10
2014,09,03,04,50,6.10
2014,09,03,04,51,6.10
2014,09,03,04,52,6.00
2014,09,03,04,53,6.00
2014,09,03,04,54,6.10
2014,09,03,04,55,6.10
2014,09,03,04,56,6.10
2014,09,03,04,57,6.10
2014,09,03,04,58,6.10
2014,09,03,04,59,6.00
2014,09,03,05,00,6.00
2014,09,03,05,01,6.00
2014,09,03,05,02,6.00
2014,09,03,05,03,6.00
2014,09,03,05,04,6.00
2014,09,03,05,05,5.90
2014,09,03,05,06,5.90
2014,09,03,05,07,5.90
2014,09,03,05,08,5.90
2014,09,03,05,09,5.90
2014,09,03,05,10,5.90
2014,09,03,05,11,5.90
2014,09,03,05,12,5.90
2014,09,03,05,13,5.90
2014,09,03,05,14,5.90
2014,09,03,05,15,5.90
2014,09,03,05,16,5.90
2014,09,03,05,17,5.90
2014,09,03,05,18,5.90
2014,09,03,05,19,5.90
2014,09,03,05,20,5.90
2014,09,03,05,21,5.80
2014,09,03,05,22,5.80
2014,09,03,05,23,5.80
2014,09,03,05,24,5.80
2014,09,03,05,25,5.80
2014,09,03,05,26,5.80
2014,09,03,05,27,5.80
2014,09,03,05,28,5.80
2014,09,03,05,29,5.80
2014,09,03,05,30,5.80
2014,09,03,05,31,5.80
2014,09,03,05,32,5.80
2014,09,03,05,33,5.80
2014,09,03,05,34,5.80
2014,09,03,05,35,5.80
2014,09,03,05,36,5.80
2014,09,03,05,37,5.70
2014,09,03,05,38,5.70
2014,09,03,05,39,5.70
2014,09,03,05,40,5.70
2014,09,03,05,41,5.70
2014,09,03,05,42,5.70
2014,09,03,05,43,5.70
2014,09,03,05,44,5.70
2014,09,03,05,45,5.70
2014,09,03,05,46,5.70
2014,09,03,05,47,5.70
2014,09,03,05,48,5.70
2014,09,03,05,49,5.70
2014,09,03,05,50,5.70
2014,09,03,05,51,5.70
2014,09,03,05,52,5.70
2014,09,03,05,53,5.70
2014,09,03,05,54,5.70
2014,09,03,05,55,5.70
2014,09,03,05,56,5.70
2014,09,03,05,57,5.70
2014,09,03,05,58,5.70
2014,09,03,05,59,5.70
2014,09,03,06,00,5.70
2014,09,03,06,01,5.70
2014,09,03,06,02,5.70
2014,09,03,06,03,5.70
2014,09,03,06,04,5.70
2014,09,03,06,05,5.70
2014,09,03,06,06,5.70
2014,09,03,06,07,5.70
2014,09,03,06,08,5.70
2014,09,03,06,09,5.70
2014,09,03,06,10,5.70
2014,09,03,06,11,5.70
2014,09,03,06,12,5.70
2014,09,03,06,13,5.60
2014,09,03,06,14,5.60
2014,09,03,06,15,5.60
2014,09,03,06,16,5.60
2014,09,03,06,17,5.60
2014,09,03,06,18,5.60
2014,09,03,06,19,5.60
2014,09,03,06,20,5.60
2014,09,03,06,21,5.60
2014,09,03,06,22,5.60
2014,09,03,06,23,5.60
2014,09,03,06,24,5.60
2014,09,03,06,25,5.60
2014,09,03,06,26,5.60
2014,09,03,06,27,5.60
2014,09,03,06,28,5.60
2014,09,03,06,29,5.60
2014,09,03,06,30,5.60
2014,09,03,06,31,5.60
2014,09,03,06,32,5.60
2014,09,03,06,33,5.60
2014,09,03,06,34,5.60
2014,09,03,06,35,5.60
2014,09,03,06,36,5.60
2014,09,03,06,37,5.60
2014,09,03,06,38,5.60
2014,09,03,06,39,5.50
2014,09,03,06,40,5.50
2014,09,03,06,41,5.50
2014,09,03,06,42,5.50
2014,09,03,06,43,5.50
2014,09,03,06,44,5.50
2014,09,03,06,45,5.50
2014,09,03,06,46,5.40
2014,09,03,06,47,5.40
2014,09,03,06,48,5.40
2014,09,03,06,49,5.40
2014,09,03,06,50,5.40
2014,09,03,06,51,5.40
2014,09,03,06,52,5.40
2014,09,03,06,53,5.40
2014,09,03,06,54,5.40
2014,09,03,06,55,5.40
2014,09,03,06,56,5.40
2014,09,03,06,57,5.40
2014,09,03,06,58,5.40
2014,09,03,06,59,5.40
2014,09,03,07,00,5.40
2014,09,03,07,01,5.30
2014,09,03,07,02,5.30
2014,09,03,07,03,5.30
2014,09,03,07,04,5.30
2014,09,03,07,05,5.30
2014,09,03,07,06,5.30
2014,09,03,07,07,5.30
2014,09,03,07,08,5.30
2014,09,03,07,09,5.30
2014,09,03,07,10,5.30
2014,09,03,07,11,5.30
2014,09,03,07,12,5.30
2014,09,03,07,13,5.30
2014,09,03,07,14,5.30
2014,09,03,07,15,5.30
2014,09,03,07,16,5.30
2014,09,03,07,17,5.30
2014,09,03,07,18,5.30
2014,09,03,07,19,5.30
2014,09,03,07,20,5.30
2014,09,03,07,21,5.30
2014,09,03,07,22,5.30
2014,09,03,07,23,5.30
2014,09,03,07,24,5.30
2014,09,03,07,25,5.30
2014,09,03,07,26,5.30
2014,09,03,07,27,5.30
2014,09,03,07,28,5.30
2014,09,03,07,29,5.30
2014,09,03,07,30,5.30
2014,09,03,07,31,5.30
2014,09,03,07,32,5.30
2014,09,03,07,33,5.30
2014,09,03,07,34,5.30
2014,09,03,07,35,5.30
2014,09,03,07,36,5.30
2014,09,03,07,37,5.30
2014,09,03,07,38,5.30
2014,09,03,07,39,5.30
2014,09,03,07,40,5.30
2014,09,03,07,41,5.30
2014,09,03,07,42,5.30
2014,09,03,07,43,5.30
2014,09,03,07,44,5.30
2014,09,03,07,45,5.30
2014,09,03,07,46,5.30
2014,09,03,07,47,5.30
2014,09,03,07,48,5.30
2014,09,03,07,49,5.30
2014,09,03,07,50,5.30
2014,09,03,07,51,5.30
2014,09,03,07,52,5.30
2014,09,03,07,53,5.30
2014,09,03,07,54,5.30
2014,09,03,07,55,5.30
2014,09,03,07,56,5.30
2014,09,03,07,57,5.30
2014,09,03,07,58,5.30
2014,09,03,07,59,5.30
2014,09,03,08,00,5.30
2014,09,03,08,01,5.30
2014,09,03,08,02,5.30
2014,09,03,08,03,5.30
2014,09,03,08,04,5.30
2014,09,03,08,05,5.30
2014,09,03,08,06,5.30
2014,09,03,08,07,5.30
2014,09,03,08,08,5.30
2014,09,03,08,09,5.40
2014,09,03,08,10,5.40
2014,09,03,08,11,5.50
2014,09,03,08,12,5.50
2014,09,03,08,13,5.60
2014,09,03,08,14,5.60
2014,09,03,08,15,5.70
2014,09,03,08,16,5.70
2014,09,03,08,17,5.70
2014,09,03,08,18,5.80
2014,09,03,08,19,5.80
2014,09,03,08,20,5.80
2014,09,03,08,21,5.90
2014,09,03,08,22,5.90
2014,09,03,08,23,6.00
2014,09,03,08,24,6.10
2014,09,03,08,25,6.20
2014,09,03,08,26,6.30
2014,09,03,08,27,6.40
2014,09,03,08,28,6.50
2014,09,03,08,29,6.60
2014,09,03,08,30,6.60
2014,09,03,08,31,6.70
2014,09,03,08,32,6.80
2014,09,03,08,33,6.90
2014,09,03,08,34,6.90
2014,09,03,08,35,7.00
2014,09,03,08,36,7.10
2014,09,03,08,37,7.20
2014,09,03,08,38,7.30
2014,09,03,08,39,7.30
2014,09,03,08,40,7.50
2014,09,03,08,41,7.60
2014,09,03,08,42,7.60
2014,09,03,08,43,7.70
2014,09,03,08,44,7.80
2014,09,03,08,45,7.80
2014,09,03,08,46,7.80
2014,09,03,08,47,7.90
2014,09,03,08,48,7.90
2014,09,03,08,49,8.00
2014,09,03,08,50,8.10
2014,09,03,08,51,8.20
2014,09,03,08,52,8.20
2014,09,03,08,53,8.30
2014,09,03,08,54,8.50
2014,09,03,08,55,8.50
2014,09,03,08,56,8.60
2014,09,03,08,57,8.70
2014,09,03,08,58,8.80
2014,09,03,08,59,8.90
2014,09,03,09,00,9.00
2014,09,03,09,01,9.00
2014,09,03,09,02,9.10
2014,09,03,09,03,9.20
2014,09,03,09,04,9.30
2014,09,03,09,05,9.40
2014,09,03,09,06,9.50
2014,09,03,09,07,9.60
2014,09,03,09,08,9.60
2014,09,03,09,09,9.70
2014,09,03,09,10,9.80
2014,09,03,09,11,9.90
2014,09,03,09,12,10.00
2014,09,03,09,13,10.00
2014,09,03,09,14,10.10
2014,09,03,09,15,10.20
2014,09,03,09,16,10.30
2014,09,03,09,17,10.30
2014,09,03,09,18,10.40
2014,09,03,09,19,10.40
2014,09,03,09,20,10.50
2014,09,03,09,21,10.50
2014,09,03,09,22,10.60
2014,09,03,09,23,10.60
2014,09,03,09,24,10.70
2014,09,03,09,25,10.70
2014,09,03,09,26,10.80
2014,09,03,09,27,10.80
2014,09,03,09,28,10.80
2014,09,03,09,29,10.90
2014,09,03,09,30,10.90
2014,09,03,09,31,10.90
2014,09,03,09,32,10.90
2014,09,03,09,33,11.00
2014,09,03,09,34,11.00
2014,09,03,09,35,11.10
2014,09,03,09,36,11.10
2014,09,03,09,37,11.20
2014,09,03,09,38,11.30
2014,09,03,09,39,11.30
2014,09,03,09,40,11.40
2014,09,03,09,41,11.40
2014,09,03,09,42,11.50
2014,09,03,09,43,11.50
2014,09,03,09,44,11.60
2014,09,03,09,45,11.60
2014,09,03,09,46,11.70
2014,09,03,09,47,11.70
2014,09,03,09,48,11.70
2014,09,03,09,49,11.80
2014,09,03,09,50,11.80
2014,09,03,09,51,11.80
2014,09,03,09,52,11.90
2014,09,03,09,53,11.90
2014,09,03,09,54,11.90
2014,09,03,09,55,12.00
2014,09,03,09,56,12.00
2014,09,03,09,57,12.10
2014,09,03,09,58,12.10
2014,09,03,09,59,12.20
2014,09,03,10,00,12.30
2014,09,03,10,01,12.40
2014,09,03,10,02,12.50
2014,09,03,10,03,12.60
2014,09,03,10,04,12.70
2014,09,03,10,05,12.70
2014,09,03,10,06,12.80
2014,09,03,10,07,12.80
2014,09,03,10,08,12.80
2014,09,03,10,09,12.80
2014,09,03,10,10,12.90
2014,09,03,10,11,12.90
2014,09,03,10,12,13.00
2014,09,03,10,13,13.00
2014,09,03,10,14,13.10
2014,09,03,10,15,13.20
2014,09,03,10,16,13.20
2014,09,03,10,17,13.20
2014,09,03,10,18,13.20
2014,09,03,10,19,13.30
2014,09,03,10,20,13.30
2014,09,03,10,21,13.40
2014,09,03,10,22,13.40
2014,09,03,10,23,13.50
2014,09,03,10,24,13.60
2014,09,03,10,25,13.70
2014,09,03,10,26,13.70
2014,09,03,10,27,13.80
2014,09,03,10,28,13.80
2014,09,03,10,29,13.80
2014,09,03,10,30,13.90
2014,09,03,10,31,13.90
2014,09,03,10,32,13.90
2014,09,03,10,33,14.00
2014,09,03,10,34,14.00
2014,09,03,10,35,14.10
2014,09,03,10,36,14.10
2014,09,03,10,37,14.20
2014,09,03,10,38,14.30
2014,09,03,10,39,14.30
2014,09,03,10,40,14.30
2014,09,03,10,41,14.40
2014,09,03,10,42,14.40
2014,09,03,10,43,14.50
2014,09,03,10,44,14.50
2014,09,03,10,45,14.60
2014,09,03,10,46,14.70
2014,09,03,10,47,14.80
2014,09,03,10,48,14.90
2014,09,03,10,49,14.90
2014,09,03,10,50,15.00
2014,09,03,10,51,15.10
2014,09,03,10,52,15.20
2014,09,03,10,53,15.20
2014,09,03,10,54,15.30
2014,09,03,10,55,15.50
2014,09,03,10,56,15.60
2014,09,03,10,57,15.70
2014,09,03,10,58,15.80
2014,09,03,10,59,15.90
2014,09,03,11,00,15.90
2014,09,03,11,01,16.00
2014,09,03,11,02,16.10
2014,09,03,11,03,16.10
2014,09,03,11,04,16.20
2014,09,03,11,05,16.20
2014,09,03,11,06,16.30
2014,09,03,11,07,16.40
2014,09,03,11,08,16.40
2014,09,03,11,09,16.40
2014,09,03,11,10,16.40
2014,09,03,11,11,16.40
2014,09,03,11,12,16.50
2014,09,03,11,13,16.50
2014,09,03,11,14,16.60
2014,09,03,11,15,16.60
2014,09,03,11,16,16.60
2014,09,03,11,17,16.60
2014,09,03,11,18,16.70
2014,09,03,11,19,16.70
2014,09,03,11,20,16.70
2014,09,03,11,21,16.70
2014,09,03,11,22,16.70
2014,09,03,11,23,16.80
2014,09,03,11,24,16.80
2014,09,03,11,25,16.80
2014,09,03,11,26,16.90
2014,09,03,11,27,16.90
2014,09,03,11,28,17.00
2014,09,03,11,29,17.10
2014,09,03,11,30,17.20
2014,09,03,11,31,17.30
2014,09,03,11,32,17.40
2014,09,03,11,33,17.50
2014,09,03,11,34,17.50
2014,09,03,11,35,17.60
2014,09,03,11,36,17.70
2014,09,03,11,37,17.70
2014,09,03,11,38,17.70
2014,09,03,11,39,17.80
2014,09,03,11,40,17.80
2014,09,03,11,41,17.90
2014,09,03,11,42,17.90
2014,09,03,11,43,17.90
2014,09,03,11,44,17.90
2014,09,03,11,45,17.90
2014,09,03,11,46,18.00
2014,09,03,11,47,18.10
2014,09,03,11,48,18.20
2014,09,03,11,49,18.20
2014,09,03,11,50,18.20
2014,09,03,11,51,18.20
2014,09,03,11,52,18.20
2014,09,03,11,53,18.20
2014,09,03,11,54,18.30
2014,09,03,11,55,18.30
2014,09,03,11,56,18.30
2014,09,03,11,57,18.40
2014,09,03,11,58,18.40
2014,09,03,11,59,18.40
2014,09,03,12,00,18.40
2014,09,03,12,01,18.40
2014,09,03,12,02,18.40
2014,09,03,12,03,18.40
2014,09,03,12,04,18.40
2014,09,03,12,05,18.30
2014,09,03,12,06,18.40
2014,09,03,12,07,18.40
2014,09,03,12,08,18.40
2014,09,03,12,09,18.50
2014,09,03,12,10,18.60
2014,09,03,12,11,18.60
2014,09,03,12,12,18.60
2014,09,03,12,13,18.60
2014,09,03,12,14,18.60
2014,09,03,12,15,18.60
2014,09,03,12,16,18.70
2014,09,03,12,17,18.70
2014,09,03,12,18,18.70
2014,09,03,12,19,18.80
2014,09,03,12,20,18.90
2014,09,03,12,21,18.90
2014,09,03,12,22,19.00
2014,09,03,12,23,19.00
2014,09,03,12,24,19.10
2014,09,03,12,25,19.20
2014,09,03,12,26,19.20
2014,09,03,12,27,19.30
2014,09,03,12,28,19.30
2014,09,03,12,29,19.30
2014,09,03,12,30,19.20
2014,09,03,12,31,19.20
2014,09,03,12,32,19.30
2014,09,03,12,33,19.30
2014,09,03,12,34,19.40
2014,09,03,12,35,19.40
2014,09,03,12,36,19.50
2014,09,03,12,37,19.50
2014,09,03,12,38,19.60
2014,09,03,12,39,19.60
2014,09,03,12,40,19.70
2014,09,03,12,41,19.80
2014,09,03,12,42,19.80
2014,09,03,12,43,19.80
2014,09,03,12,44,19.90
2014,09,03,12,45,20.00
2014,09,03,12,46,20.10
2014,09,03,12,47,20.20
2014,09,03,12,48,20.10
2014,09,03,12,49,20.10
2014,09,03,12,50,20.00
2014,09,03,12,51,19.90
2014,09,03,12,52,19.90
2014,09,03,12,53,19.90
2014,09,03,12,54,20.00
2014,09,03,12,55,19.90
2014,09,03,12,56,19.90
2014,09,03,12,57,20.00
2014,09,03,12,58,20.00
2014,09,03,12,59,20.00
2014,09,03,13,00,20.10
2014,09,03,13,01,20.10
2014,09,03,13,02,20.10
2014,09,03,13,03,20.10
2014,09,03,13,04,20.20
2014,09,03,13,05,20.20
2014,09,03,13,06,20.20
2014,09,03,13,07,20.30
2014,09,03,13,08,20.40
2014,09,03,13,09,20.50
2014,09,03,13,10,20.60
2014,09,03,13,11,20.60
2014,09,03,13,12,20.60
2014,09,03,13,13,20.70
2014,09,03,13,14,20.80
2014,09,03,13,15,20.90
2014,09,03,13,16,20.80
2014,09,03,13,17,20.80
2014,09,03,13,18,20.80
2014,09,03,13,19,20.90
2014,09,03,13,20,20.90
2014,09,03,13,21,21.00
2014,09,03,13,22,21.10
2014,09,03,13,23,21.20
2014,09,03,13,24,21.20
2014,09,03,13,25,21.30
2014,09,03,13,26,21.30
2014,09,03,13,27,21.40
2014,09,03,13,28,21.30
2014,09,03,13,29,21.30
2014,09,03,13,30,21.40
2014,09,03,13,31,21.40
2014,09,03,13,32,21.40
2014,09,03,13,33,21.40
2014,09,03,13,34,21.40
2014,09,03,13,35,21.50
2014,09,03,13,36,21.50
2014,09,03,13,37,21.60
2014,09,03,13,38,21.60
2014,09,03,13,39,21.60
2014,09,03,13,40,21.60
2014,09,03,13,41,21.60
2014,09,03,13,42,21.60
2014,09,03,13,43,21.60
2014,09,03,13,44,21.60
2014,09,03,13,45,21.70
2014,09,03,13,46,21.70
2014,09,03,13,47,21.70
2014,09,03,13,48,21.70
2014,09,03,13,49,21.80
2014,09,03,13,50,21.90
2014,09,03,13,51,22.00
2014,09,03,13,52,22.20
2014,09,03,13,53,22.20
2014,09,03,13,54,22.30
2014,09,03,13,55,22.30
2014,09,03,13,56,22.30
2014,09,03,13,57,22.30
2014,09,03,13,58,22.30
2014,09,03,13,59,22.30
2014,09,03,14,00,22.40
2014,09,03,14,01,22.40
2014,09,03,14,02,22.40
2014,09,03,14,03,22.40
2014,09,03,14,04,22.40
2014,09,03,14,05,22.50
2014,09,03,14,06,22.50
2014,09,03,14,07,22.60
2014,09,03,14,08,22.60
2014,09,03,14,09,22.60
2014,09,03,14,10,22.70
2014,09,03,14,11,22.60
2014,09,03,14,12,22.60
2014,09,03,14,13,22.60
2014,09,03,14,14,22.60
2014,09,03,14,15,22.60
2014,09,03,14,16,22.70
2014,09,03,14,17,22.70
2014,09,03,14,18,22.70
2014,09,03,14,19,22.60
2014,09,03,14,20,22.70
2014,09,03,14,21,22.70
2014,09,03,14,22,22.80
2014,09,03,14,23,22.90
2014,09,03,14,24,22.90
2014,09,03,14,25,23.00
2014,09,03,14,26,23.00
2014,09,03,14,27,23.00
2014,09,03,14,28,23.00
2014,09,03,14,29,23.10
2014,09,03,14,30,23.10
2014,09,03,14,31,23.10
2014,09,03,14,32,23.10
2014,09,03,14,33,23.10
2014,09,03,14,34,23.00
2014,09,03,14,35,23.00
2014,09,03,14,36,22.90
2014,09,03,14,37,22.90
2014,09,03,14,38,22.90
2014,09,03,14,39,22.90
2014,09,03,14,40,23.00
2014,09,03,14,41,23.00
2014,09,03,14,42,23.10
2014,09,03,14,43,23.10
2014,09,03,14,44,23.10
2014,09,03,14,45,23.10
2014,09,03,14,46,23.10
2014,09,03,14,47,23.10
2014,09,03,14,48,23.20
2014,09,03,14,49,23.20
2014,09,03,14,50,23.20
2014,09,03,14,51,23.20
2014,09,03,14,52,23.30
2014,09,03,14,53,23.30
2014,09,03,14,54,23.30
2014,09,03,14,55,23.20
2014,09,03,14,56,23.20
2014,09,03,14,57,23.30
2014,09,03,14,58,23.30
2014,09,03,14,59,23.30
2014,09,03,15,00,23.30
2014,09,03,15,01,23.30
2014,09,03,15,02,23.30
2014,09,03,15,03,23.30
2014,09,03,15,04,23.30
2014,09,03,15,05,23.40
2014,09,03,15,06,23.40
2014,09,03,15,07,23.40
2014,09,03,15,08,23.40
2014,09,03,15,09,23.40
2014,09,03,15,10,23.40
2014,09,03,15,11,23.40
2014,09,03,15,12,23.40
2014,09,03,15,13,23.40
2014,09,03,15,14,23.40
2014,09,03,15,15,23.40
2014,09,03,15,16,23.50
2014,09,03,15,17,23.70
2014,09,03,15,18,23.80
2014,09,03,15,19,23.80
2014,09,03,15,20,23.80
2014,09,03,15,21,23.80
2014,09,03,15,22,23.80
2014,09,03,15,23,23.80
2014,09,03,15,24,23.90
2014,09,03,15,25,23.80
2014,09,03,15,26,23.60
2014,09,03,15,27,23.60
2014,09,03,15,28,23.60
2014,09,03,15,29,23.50
2014,09,03,15,30,23.50
2014,09,03,15,31,23.60
2014,09,03,15,32,23.60
2014,09,03,15,33,23.70
2014,09,03,15,34,23.70
2014,09,03,15,35,23.70
2014,09,03,15,36,23.70
2014,09,03,15,37,23.60
2014,09,03,15,38,23.60
2014,09,03,15,39,23.50
2014,09,03,15,40,23.50
2014,09,03,15,41,23.50
2014,09,03,15,42,23.50
2014,09,03,15,43,23.50
2014,09,03,15,44,23.50
2014,09,03,15,45,23.60
2014,09,03,15,46,23.60
2014,09,03,15,47,23.70
2014,09,03,15,48,23.70
2014,09,03,15,49,23.80
2014,09,03,15,50,23.80
2014,09,03,15,51,23.90
2014,09,03,15,52,24.00
2014,09,03,15,53,24.00
2014,09,03,15,54,24.00
2014,09,03,15,55,24.00
2014,09,03,15,56,24.00
2014,09,03,15,57,24.00
2014,09,03,15,58,23.90
2014,09,03,15,59,23.90
2014,09,03,16,00,23.90
2014,09,03,16,01,23.80
2014,09,03,16,02,23.90
2014,09,03,16,03,23.80
2014,09,03,16,04,23.80
2014,09,03,16,05,23.80
2014,09,03,16,06,23.70
2014,09,03,16,07,23.80
2014,09,03,16,08,23.80
2014,09,03,16,09,23.80
2014,09,03,16,10,23.90
2014,09,03,16,11,23.90
2014,09,03,16,12,24.00
2014,09,03,16,13,24.10
2014,09,03,16,14,24.20
2014,09,03,16,15,24.20
2014,09,03,16,16,24.10
2014,09,03,16,17,24.10
2014,09,03,16,18,24.10
2014,09,03,16,19,24.20
2014,09,03,16,20,24.20
2014,09,03,16,21,24.20
2014,09,03,16,22,24.20
2014,09,03,16,23,24.10
2014,09,03,16,24,24.10
2014,09,03,16,25,24.10
2014,09,03,16,26,24.10
2014,09,03,16,27,24.20
2014,09,03,16,28,24.20
2014,09,03,16,29,24.20
2014,09,03,16,30,24.20
2014,09,03,16,31,24.20
2014,09,03,16,32,24.20
2014,09,03,16,33,24.20
2014,09,03,16,34,24.20
2014,09,03,16,35,24.20
2014,09,03,16,36,24.20
2014,09,03,16,37,24.20
2014,09,03,16,38,24.20
2014,09,03,16,39,24.10
2014,09,03,16,40,24.10
2014,09,03,16,41,24.10
2014,09,03,16,42,24.10
2014,09,03,16,43,24.10
2014,09,03,16,44,24.10
2014,09,03,16,45,24.10
2014,09,03,16,46,24.10
2014,09,03,16,47,24.10
2014,09,03,16,48,24.10
2014,09,03,16,49,24.00
2014,09,03,16,50,24.10
2014,09,03,16,51,24.10
2014,09,03,16,52,24.20
2014,09,03,16,53,24.30
2014,09,03,16,54,24.30
2014,09,03,16,55,24.20
2014,09,03,16,56,24.20
2014,09,03,16,57,24.20
2014,09,03,16,58,24.20
2014,09,03,16,59,24.30
2014,09,03,17,00,24.30
2014,09,03,17,01,24.30
2014,09,03,17,02,24.30
2014,09,03,17,03,24.30
2014,09,03,17,04,24.40
2014,09,03,17,05,24.50
2014,09,03,17,06,24.50
2014,09,03,17,07,24.50
2014,09,03,17,08,24.50
2014,09,03,17,09,24.40
2014,09,03,17,10,24.40
2014,09,03,17,11,24.30
2014,09,03,17,12,24.20
2014,09,03,17,13,24.20
2014,09,03,17,14,24.10
2014,09,03,17,15,24.10
2014,09,03,17,16,24.00
2014,09,03,17,17,24.00
2014,09,03,17,18,23.90
2014,09,03,17,19,23.90
2014,09,03,17,20,23.90
2014,09,03,17,21,23.90
2014,09,03,17,22,23.90
2014,09,03,17,23,23.90
2014,09,03,17,24,23.90
2014,09,03,17,25,23.90
2014,09,03,17,26,23.90
2014,09,03,17,27,23.90
2014,09,03,17,28,23.90
2014,09,03,17,29,23.90
2014,09,03,17,30,23.90
2014,09,03,17,31,23.90
2014,09,03,17,32,23.90
2014,09,03,17,33,23.80
2014,09,03,17,34,23.80
2014,09,03,17,35,23.80
2014,09,03,17,36,23.80
2014,09,03,17,37,23.80
2014,09,03,17,38,23.80
2014,09,03,17,39,23.80
2014,09,03,17,40,23.90
2014,09,03,17,41,23.90
2014,09,03,17,42,23.80
2014,09,03,17,43,23.80